Date String (YYYY-MM-DD hh:mm:ss) UTC,Instrument flags,absolute air pressure of the measurement (hPa),sample flow rate (lpm),inlet stack bypass flow (lpm),air temperature of the measurement (°C),ambient temperature measured by the external sensor (°C),aerosol sample conditioner tube jacket temperature (°C),OPC LED temperature (°C),internal box temperature (°C),relative humidity of the measurement (%),span deviation,mass concentration of particles derived from Lorenz-Mie calculation of OPC scattering (μg/m³),mass concentration of particles derived from Lorenz-Mie calculation of OPC scattering (μg/m³),mass concentration of particles derived from Lorenz-Mie calculation of OPC scattering (μg/m³)
DateTimeUTC,F1_M11,P_M11,Q1_M11,Q2_M11,T1_M11,T2_M11,T3_M11,T4_M11,T5_M11,U1_M11,ZSPAN_M11,X2_M11,X0_M11,X1_M11
2024-01-28 18:00:00,SystemResetWarning,0836.8,5.00,000.00,023.3,022.8,000.0,031.4,024.9,13.0,0000.0,0000.41,0000.66,0000.32
2024-01-28 18:01:00,SystemResetWarning,0836.8,4.99,000.00,023.4,022.8,000.0,031.4,024.9,13.0,0000.0,0000.44,0000.68,0000.34
2024-01-28 18:02:00,SystemResetWarning,0836.8,5.00,000.00,023.4,022.8,000.0,031.5,024.9,13.1,0000.0,0000.47,0000.72,0000.36
2024-01-28 18:03:00,SystemResetWarning,0836.8,5.01,000.00,023.4,022.8,000.0,031.5,024.9,13.1,0000.0,0000.49,0000.73,0000.39
2024-01-28 18:04:00,SystemResetWarning,0836.8,5.01,000.00,023.4,022.9,000.0,031.5,025.0,12.9,0000.0,0000.52,0000.77,0000.42
2024-01-28 18:05:00,SystemResetWarning,0836.8,5.00,000.00,023.5,022.9,000.0,031.5,025.0,12.9,0000.0,0000.57,0000.88,0000.45
2024-01-28 18:06:00,SystemResetWarning,0836.8,5.00,000.00,023.5,022.9,000.0,031.5,025.0,12.9,0000.0,0000.60,0000.92,0000.48
2024-01-28 18:07:00,SystemResetWarning,0836.8,5.00,000.00,023.5,022.9,000.0,031.6,025.0,12.7,0000.0,0000.65,0001.00,0000.50
2024-01-28 18:08:00,SystemResetWarning,0836.7,5.00,000.00,023.5,022.9,000.0,031.6,025.0,12.8,0000.0,0000.68,0001.10,0000.53
2024-01-28 18:09:00,SystemResetWarning,0836.8,5.00,000.00,023.5,023.0,000.0,031.6,025.1,12.8,0000.0,0000.72,0001.35,0000.57
2024-01-28 18:10:00,SystemResetWarning,0836.8,5.01,000.00,023.6,023.0,000.0,031.6,025.1,12.5,0000.0,0000.76,0002.34,0000.61
2024-01-28 18:11:00,SystemResetWarning,0836.8,5.01,000.00,023.6,023.0,000.0,031.6,025.1,12.5,0000.0,0000.78,0002.33,0000.63
2024-01-28 18:12:00,SystemResetWarning,0836.7,5.01,000.00,023.6,023.0,000.0,031.7,025.1,12.5,0000.0,0000.79,0002.54,0000.66
2024-01-28 18:13:00,SystemResetWarning,0836.7,5.00,000.00,023.6,023.1,000.0,031.7,025.2,12.7,0000.0,0000.80,0003.54,0000.68
2024-01-28 18:14:00,SystemResetWarning,0836.7,5.00,000.00,023.7,023.1,000.0,031.7,025.2,12.7,0000.0,0000.85,0003.61,0000.70
2024-01-28 18:15:00,SystemResetWarning,0836.8,5.00,000.00,023.7,023.1,000.0,031.7,025.2,12.5,0000.0,0000.91,0003.73,0000.72
2024-01-28 18:16:00,SystemResetWarning,0836.8,5.00,000.00,023.7,023.1,000.0,031.8,025.2,12.5,0000.0,0000.93,0003.75,0000.74
2024-01-28 18:17:00,SystemResetWarning,0836.8,4.99,000.00,023.7,023.1,000.0,031.8,025.2,12.5,0000.0,0000.96,0003.92,0000.76
2024-01-28 18:18:00,SystemResetWarning,0836.8,5.00,000.00,023.7,023.1,000.0,031.8,025.2,12.2,0000.0,0001.02,0004.04,0000.79
2024-01-28 18:19:00,SystemResetWarning,0836.8,5.00,000.00,023.7,023.2,000.0,031.8,025.2,12.3,0000.0,0001.08,0004.07,0000.83
2024-01-28 18:20:00,SystemResetWarning,0836.8,5.00,000.00,023.8,023.2,000.0,031.8,025.3,12.4,0000.0,0001.16,0004.08,0000.88
2024-01-28 18:21:00,SystemResetWarning,0836.8,5.01,000.00,023.8,023.2,000.0,031.9,025.3,12.2,0000.0,0001.28,0003.40,0000.95
2024-01-28 18:22:00,SystemResetWarning,0836.7,5.01,000.00,023.8,023.2,000.0,031.9,025.3,12.2,0000.0,0001.41,0004.06,0001.04
2024-01-28 18:23:00,SystemResetWarning,0836.8,5.00,000.00,023.8,023.2,000.0,031.9,025.3,12.1,0000.0,0001.55,0004.49,0001.12
2024-01-28 18:24:00,SystemResetWarning,0836.8,5.00,000.00,023.8,023.3,000.0,031.9,025.4,12.1,0000.0,0001.63,0003.64,0001.18
2024-01-28 18:25:00,SystemResetWarning,0836.8,4.99,000.00,023.9,023.3,000.0,031.9,025.4,12.3,0000.0,0001.70,0003.83,0001.23
2024-01-28 18:26:00,SystemResetWarning,0836.8,4.99,000.00,023.9,023.3,000.0,032.0,025.4,12.1,0000.0,0001.79,0004.23,0001.30
2024-01-28 18:27:00,SystemResetWarning,0836.8,5.00,000.00,023.9,023.3,000.0,032.0,025.5,12.1,0000.0,0001.87,0004.42,0001.38
2024-01-28 18:28:00,SystemResetWarning,0836.8,5.00,000.00,023.9,023.3,000.0,032.0,025.5,12.2,0000.0,0001.96,0004.38,0001.48
2024-01-28 18:29:00,SystemResetWarning,0836.8,5.00,000.00,024.0,023.4,000.0,032.0,025.5,12.4,0000.0,0002.02,0004.36,0001.57
2024-01-28 18:30:00,SystemResetWarning,0836.8,5.00,000.00,024.0,023.4,000.0,032.0,025.5,12.0,0000.0,0002.07,0004.76,0001.65
2024-01-28 18:31:00,SystemResetWarning,0836.8,5.00,000.00,024.0,023.4,000.0,032.1,025.5,12.1,0000.0,0002.08,0005.11,0001.69
2024-01-28 18:32:00,SystemResetWarning,0836.8,5.00,000.00,024.0,023.4,000.0,032.1,025.5,12.1,0000.0,0002.06,0005.68,0001.70
2024-01-28 18:33:00,SystemResetWarning,0836.7,5.00,000.00,024.0,023.5,000.0,032.1,025.5,12.1,0000.0,0002.07,0005.58,0001.71
2024-01-28 18:34:00,SystemResetWarning,0836.7,5.00,000.00,024.1,023.5,000.0,032.1,025.5,12.1,0000.0,0002.05,0005.15,0001.72
2024-01-28 18:35:00,SystemResetWarning,0836.7,5.00,000.00,024.1,023.5,000.0,032.1,025.6,12.5,0000.0,0002.03,0005.62,0001.72
2024-01-28 18:36:00,SystemResetWarning,0836.8,5.00,000.00,024.1,023.5,000.0,032.2,025.6,12.4,0000.0,0002.03,0006.94,0001.74
2024-01-28 18:37:00,SystemResetWarning,0836.8,5.00,000.00,024.1,023.5,000.0,032.2,025.6,12.2,0000.0,0002.02,0007.04,0001.75
2024-01-28 18:38:00,SystemResetWarning,0836.8,5.00,000.00,024.1,023.6,000.0,032.2,025.6,12.1,0000.0,0002.03,0007.28,0001.78
2024-01-28 18:39:00,SystemResetWarning,0836.7,5.00,000.00,024.2,023.6,000.0,032.2,025.6,12.3,0000.0,0002.06,0007.49,0001.78
2024-01-28 18:40:00,SystemResetWarning,0836.7,5.00,000.00,024.2,023.6,000.0,032.2,025.7,12.2,0000.0,0002.08,0007.93,0001.76
2024-01-28 18:41:00,SystemResetWarning,0836.7,5.00,000.00,024.2,023.6,000.0,032.3,025.7,12.3,0000.0,0002.10,0007.90,0001.75
2024-01-28 18:42:00,SystemResetWarning,0836.7,5.00,000.00,024.2,023.6,000.0,032.3,025.7,12.1,0000.0,0002.14,0007.67,0001.77
2024-01-28 18:43:00,SystemResetWarning,0836.6,5.00,000.00,024.2,023.7,000.0,032.3,025.7,12.1,0000.0,0002.21,0007.36,0001.79
2024-01-28 18:44:00,SystemResetWarning,0836.7,5.00,000.00,024.3,023.7,000.0,032.3,025.7,12.1,0000.0,0002.18,0006.95,0001.80
2024-01-28 18:45:00,SystemResetWarning,0836.7,4.99,000.00,024.3,023.7,000.0,032.4,025.8,12.0,0000.0,0002.22,0007.06,0001.84
2024-01-28 18:46:00,SystemResetWarning,0836.6,5.00,000.00,024.3,023.7,000.0,032.4,025.9,12.1,0000.0,0002.35,0006.77,0001.90
2024-01-28 18:47:00,SystemResetWarning,0836.6,5.00,000.00,024.3,023.7,000.0,032.4,025.9,12.2,0000.0,0002.44,0005.63,0001.96
2024-01-28 18:48:00,SystemResetWarning,0836.6,5.00,000.00,024.3,023.8,000.0,032.4,025.9,12.0,0000.0,0002.47,0006.06,0001.99
2024-01-28 18:49:00,SystemResetWarning,0836.6,5.00,000.00,024.4,023.8,000.0,032.4,025.9,12.2,0000.0,0002.52,0006.49,0001.98
2024-01-28 18:50:00,SystemResetWarning,0836.6,5.00,000.00,024.4,023.8,000.0,032.5,025.9,12.4,0000.0,0002.56,0006.47,0001.98
2024-01-28 18:51:00,SystemResetWarning,0836.6,5.00,000.00,024.4,023.8,000.0,032.5,026.0,12.6,0000.0,0002.54,0005.95,0001.97
2024-01-28 18:52:00,SystemResetWarning,0836.6,5.00,000.00,024.4,023.9,000.0,032.5,026.0,12.5,0000.0,0002.50,0005.77,0001.94
2024-01-28 18:53:00,SystemResetWarning,0836.6,5.00,000.00,024.4,023.9,000.0,032.5,026.0,12.3,0000.0,0002.44,0005.65,0001.90
2024-01-28 18:54:00,SystemResetWarning,0836.6,5.00,000.00,024.5,023.9,000.0,032.5,026.0,12.5,0000.0,0002.36,0005.47,0001.86
2024-01-28 18:55:00,SystemResetWarning,0836.6,5.00,000.00,024.5,023.9,000.0,032.6,026.0,12.3,0000.0,0002.34,0005.48,0001.81
2024-01-28 18:56:00,SystemResetWarning,0836.6,5.00,000.00,024.5,023.9,000.0,032.6,026.0,12.2,0000.0,0002.26,0005.31,0001.75
2024-01-28 18:57:00,SystemResetWarning,0836.5,5.01,000.00,024.5,023.9,000.0,032.6,026.1,12.3,0000.0,0002.12,0005.12,0001.66
2024-01-28 18:58:00,SystemResetWarning,0836.5,5.00,000.00,024.5,023.9,000.0,032.6,026.1,12.2,0000.0,0002.02,0004.96,0001.58
2024-01-28 18:59:00,SystemResetWarning,0836.5,5.00,000.00,024.5,024.0,000.0,032.6,026.1,12.2,0000.0,0001.94,0004.28,0001.52
